When you browse on this site, cookies collect data to enhance your experience and personalize the content and advertising you see.
Visit our Privacy Policy to learn more. By continuing to use the site, you agree to this use of cookies and data.
  • In United Kingdom
  • List of Countries
  • For 7 days
  • Water Temperature
  • Weather Map
  • Weather Widgets
  • user-avatar
    Login

    Hourly Weather Shapovalivka

    Today, 18 October, Friday

    Time Temperature Precipitation Wind Pressure Humidity
    00:00 +13°C° 0 mm 1 mps 747 mmHg 66%
    01:00 +13°C° 0 mm 1 mps 747 mmHg 68%
    02:00 +12°C° 0 mm 1 mps 747 mmHg 69%
    03:00 +11°C° 0 mm 0 mps 747 mmHg 71%
    04:00 +11°C° 0 mm 0 mps 747 mmHg 72%
    05:00 +11°C° 0 mm 0 mps 747 mmHg 73%
    06:00 +11°C° 0 mm 0 mps 747 mmHg 71%
    07:00 +13°C° 0 mm 1 mps 747 mmHg 68%
    08:00 +14°C° 0 mm 1 mps 748 mmHg 64%
    09:00 +16°C° 0 mm 1 mps 748 mmHg 60%
    10:00 +18°C° 0 mm 1 mps 748 mmHg 56%
    11:00 +20°C° 0 mm 1 mps 748 mmHg 51%
    12:00 +20°C° 0 mm 1 mps 748 mmHg 51%
    13:00 +21°C° 0 mm 1 mps 747 mmHg 50%
    14:00 +20°C° 0 mm 2 mps 747 mmHg 50%
    15:00 +19°C° 0 mm 2 mps 747 mmHg 55%
    16:00 +17°C° 0 mm 2 mps 747 mmHg 61%
    17:00 +16°C° 0 mm 2 mps 747 mmHg 66%
    18:00 +15°C° 0 mm 2 mps 747 mmHg 67%
    19:00 +14°C° 0 mm 2 mps 747 mmHg 68%
    20:00 +14°C° 0 mm 2 mps 748 mmHg 69%
    21:00 +13°C° 0 mm 2 mps 748 mmHg 70%
    22:00 +13°C° 0 mm 2 mps 748 mmHg 72%
    23:00 +12°C° 0 mm 1 mps 748 mmHg 73%

    Tomorrow, 19 October, Saturday

    Time Temperature Precipitation Wind Pressure Humidity
    00:00 +12°C° 0 mm 1 mps 748 mmHg 75%
    01:00 +12°C° 0 mm 1 mps 748 mmHg 77%
    02:00 +11°C° 0 mm 1 mps 748 mmHg 79%
    03:00 +11°C° 0 mm 1 mps 748 mmHg 80%
    04:00 +11°C° 0 mm 1 mps 748 mmHg 82%
    05:00 +10°C° 0 mm 1 mps 748 mmHg 83%
    06:00 +11°C° 0 mm 1 mps 749 mmHg 80%
    07:00 +12°C° 0 mm 1 mps 749 mmHg 77%
    08:00 +13°C° 0 mm 1 mps 749 mmHg 74%
    09:00 +15°C° 0 mm 1 mps 749 mmHg 68%
    10:00 +16°C° 0 mm 1 mps 749 mmHg 62%
    11:00 +19°C° 0 mm 1 mps 749 mmHg 56%
    12:00 +20°C° 0 mm 1 mps 749 mmHg 54%
    13:00 +20°C° 0 mm 1 mps 749 mmHg 51%
    14:00 +21°C° 0 mm 1 mps 749 mmHg 49%
    15:00 +20°C° 0 mm 1 mps 749 mmHg 54%
    16:00 +18°C° 0 mm 1 mps 749 mmHg 59%
    17:00 +16°C° 0 mm 1 mps 749 mmHg 64%
    18:00 +15°C° 0 mm 1 mps 749 mmHg 66%
    19:00 +15°C° 0 mm 2 mps 749 mmHg 69%
    20:00 +14°C° 0 mm 2 mps 750 mmHg 72%
    21:00 +14°C° 0 mm 2 mps 750 mmHg 74%
    22:00 +13°C° 0 mm 2 mps 750 mmHg 77%
    23:00 +13°C° 0 mm 2 mps 750 mmHg 79%

    Day after tomorrow, 20 October, Sunday

    Time Temperature Precipitation Wind Pressure Humidity
    00:00 +13°C° 0 mm 2 mps 750 mmHg 81%
    01:00 +12°C° 0 mm 2 mps 750 mmHg 82%
    02:00 +12°C° 0 mm 2 mps 750 mmHg 83%
    03:00 +12°C° 0 mm 2 mps 750 mmHg 84%
    04:00 +12°C° 0 mm 1 mps 750 mmHg 84%
    05:00 +11°C° 0 mm 1 mps 750 mmHg 85%
    06:00 +12°C° 0 mm 2 mps 750 mmHg 81%
    07:00 +13°C° 0 mm 2 mps 751 mmHg 77%
    08:00 +14°C° 0 mm 2 mps 751 mmHg 73%
    09:00 +15°C° 0 mm 2 mps 751 mmHg 65%
    10:00 +17°C° 0 mm 3 mps 751 mmHg 57%
    11:00 +19°C° 0 mm 3 mps 751 mmHg 49%
    12:00 +20°C° 0 mm 3 mps 751 mmHg 46%
    13:00 +20°C° 0 mm 3 mps 751 mmHg 43%
    14:00 +21°C° 0 mm 3 mps 751 mmHg 41%
    15:00 +19°C° 0 mm 2 mps 751 mmHg 45%
    16:00 +18°C° 0 mm 2 mps 750 mmHg 49%
    17:00 +16°C° 0 mm 2 mps 750 mmHg 54%
    18:00 +16°C° 0 mm 2 mps 750 mmHg 55%
    19:00 +15°C° 0 mm 2 mps 751 mmHg 57%
    20:00 +15°C° 0 mm 2 mps 751 mmHg 58%
    21:00 +14°C° 0 mm 2 mps 751 mmHg 60%
    22:00 +14°C° 0 mm 2 mps 751 mmHg 62%
    23:00 +13°C° 0 mm 2 mps 751 mmHg 63%

    21 October, Monday

    Time Temperature Precipitation Wind Pressure Humidity
    00:00 +13°C° 0 mm 2 mps 751 mmHg 65%
    01:00 +12°C° 0 mm 2 mps 751 mmHg 66%
    02:00 +12°C° 0 mm 2 mps 751 mmHg 67%
    03:00 +12°C° 0 mm 2 mps 751 mmHg 68%
    04:00 +10°C° 0 mm 2 mps 751 mmHg 69%
    05:00 +10°C° 0 mm 2 mps 751 mmHg 70%
    06:00 +12°C° 0 mm 2 mps 751 mmHg 67%
    07:00 +13°C° 0 mm 2 mps 751 mmHg 65%
    08:00 +13°C° 0 mm 2 mps 751 mmHg 62%
    09:00 +15°C° 0 mm 2 mps 751 mmHg 57%
    10:00 +17°C° 0 mm 3 mps 751 mmHg 51%
    11:00 +19°C° 0 mm 3 mps 751 mmHg 45%
    12:00 +20°C° 0 mm 3 mps 751 mmHg 44%
    13:00 +20°C° 0 mm 3 mps 751 mmHg 43%
    14:00 +21°C° 0 mm 3 mps 751 mmHg 42%
    15:00 +19°C° 0 mm 3 mps 750 mmHg 47%
    16:00 +18°C° 0 mm 2 mps 750 mmHg 52%
    17:00 +16°C° 0 mm 2 mps 750 mmHg 57%
    18:00 +16°C° 0 mm 2 mps 750 mmHg 58%
    19:00 +15°C° 0 mm 2 mps 750 mmHg 60%
    20:00 +14°C° 0 mm 2 mps 750 mmHg 61%
    21:00 +14°C° 0 mm 2 mps 750 mmHg 63%
    22:00 +14°C° 0 mm 2 mps 750 mmHg 64%
    23:00 +13°C° 0 mm 2 mps 750 mmHg 65%

    22 October, Tuesday

    Time Temperature Precipitation Wind Pressure Humidity
    00:00 +13°C° 0 mm 2 mps 750 mmHg 66%
    01:00 +13°C° 0 mm 2 mps 750 mmHg 67%
    02:00 +11°C° 0 mm 3 mps 750 mmHg 68%
    03:00 +11°C° 0 mm 3 mps 750 mmHg 70%
    04:00 +11°C° 0 mm 3 mps 750 mmHg 71%
    05:00 +10°C° 0 mm 3 mps 750 mmHg 72%
    06:00 +11°C° 0 mm 3 mps 750 mmHg 70%
    07:00 +12°C° 0 mm 3 mps 749 mmHg 67%
    08:00 +13°C° 0 mm 4 mps 749 mmHg 65%
    09:00 +14°C° 0 mm 4 mps 749 mmHg 60%
    10:00 +17°C° 0 mm 4 mps 749 mmHg 55%
    11:00 +19°C° 0 mm 5 mps 749 mmHg 50%
    12:00 +20°C° 0 mm 5 mps 749 mmHg 48%
    13:00 +20°C° 0 mm 5 mps 748 mmHg 47%
    14:00 +21°C° 0 mm 5 mps 748 mmHg 45%
    15:00 +19°C° 0 mm 5 mps 748 mmHg 49%
    16:00 +18°C° 0 mm 4 mps 748 mmHg 54%
    17:00 +16°C° 0 mm 3 mps 747 mmHg 58%
    18:00 +16°C° 0 mm 3 mps 747 mmHg 60%
    19:00 +14°C° 0 mm 3 mps 747 mmHg 61%
    20:00 +14°C° 0 mm 3 mps 747 mmHg 63%
    21:00 +13°C° 0 mm 3 mps 747 mmHg 68%
    22:00 +13°C° 0 mm 3 mps 747 mmHg 73%
    23:00 +13°C° 0 mm 2 mps 747 mmHg 78%

    23 October, Wednesday

    Time Temperature Precipitation Wind Pressure Humidity
    00:00 +13°C° 0 mm 2 mps 747 mmHg 82%
    01:00 +13°C° 0 mm 2 mps 747 mmHg 87%
    02:00 +12°C° 0 mm 2 mps 748 mmHg 92%
    03:00 +12°C° 0 mm 2 mps 748 mmHg 93%
    04:00 +12°C° 0 mm 2 mps 748 mmHg 94%
    05:00 +10°C° 0 mm 2 mps 748 mmHg 95%
    06:00 +11°C° 0 mm 3 mps 749 mmHg 92%
    07:00 +11°C° 0 mm 3 mps 749 mmHg 89%
    08:00 +12°C° 0 mm 3 mps 749 mmHg 86%
    09:00 +13°C° 0 mm 3 mps 749 mmHg 79%
    10:00 +14°C° 0 mm 3 mps 750 mmHg 71%
    11:00 +17°C° 0 mm 4 mps 750 mmHg 63%
    12:00 +17°C° 0 mm 3 mps 750 mmHg 61%
    13:00 +17°C° 0 mm 3 mps 750 mmHg 59%
    14:00 +17°C° 0 mm 3 mps 750 mmHg 56%
    15:00 +16°C° 0 mm 3 mps 750 mmHg 62%
    16:00 +15°C° 0 mm 2 mps 750 mmHg 68%
    17:00 +13°C° 0 mm 2 mps 750 mmHg 74%
    18:00 +13°C° 0 mm 2 mps 750 mmHg 77%
    19:00 +12°C° 0 mm 2 mps 750 mmHg 80%
    20:00 +10°C° 0 mm 2 mps 751 mmHg 83%
    21:00 +10°C° 0 mm 2 mps 751 mmHg 87%
    22:00 +9°C° 0 mm 2 mps 751 mmHg 90%
    23:00 +9°C° 0 mm 2 mps 751 mmHg 93%
    Show more